When you browse on this site, cookies collect data to enhance your experience and personalize the content and advertising you see.
Visit our Privacy Policy to learn more. By continuing to use the site, you agree to this use of cookies and data.
  • In Portugal
  • List of Countries
  • For 7 days
  • Water Temperature
  • Satellite Maps
  • Weather Map
  • Weather Widgets
  • user-avatar
    Login

    Hourly Weather Smolan

    Today, 20 November, Tuesday

    Time Temperature Precipitation Wind Pressure Humidity
    00:00 +2°C° 0 mm 1 mps 655 mmHg 84%
    01:00 +2°C° 0 mm 1 mps 655 mmHg 85%
    02:00 +2°C° 0 mm 1 mps 655 mmHg 84%
    03:00 +2°C° 0 mm 1 mps 655 mmHg 84%
    04:00 +2°C° 0 mm 1 mps 655 mmHg 85%
    05:00 +2°C° 0 mm 1 mps 655 mmHg 85%
    06:00 +2°C° 0.1 mm 1 mps 655 mmHg 86%
    07:00 +3°C° 0.1 mm 1 mps 655 mmHg 87%
    08:00 +3°C° 0.1 mm 1 mps 655 mmHg 88%
    09:00 +4°C° 0.2 mm 1 mps 656 mmHg 86%
    10:00 +4°C° 0.2 mm 2 mps 656 mmHg 85%
    11:00 +6°C° 0.2 mm 2 mps 656 mmHg 83%
    12:00 +6°C° 0.2 mm 2 mps 656 mmHg 85%
    13:00 +5°C° 0.2 mm 2 mps 656 mmHg 88%
    14:00 +5°C° 0.2 mm 2 mps 655 mmHg 90%
    15:00 +5°C° 0.2 mm 2 mps 655 mmHg 91%
    16:00 +5°C° 0.2 mm 2 mps 655 mmHg 93%
    17:00 +5°C° 0.2 mm 2 mps 654 mmHg 95%
    18:00 +5°C° 0.3 mm 2 mps 654 mmHg 95%
    19:00 +6°C° 0.3 mm 1 mps 654 mmHg 96%
    20:00 +6°C° 0.3 mm 1 mps 654 mmHg 96%
    21:00 +6°C° 0.3 mm 1 mps 654 mmHg 96%
    22:00 +6°C° 0.3 mm 1 mps 654 mmHg 96%
    23:00 +7°C° 0.3 mm 1 mps 654 mmHg 97%

    Tomorrow, 21 November, Wednesday

    Time Temperature Precipitation Wind Pressure Humidity
    00:00 +7°C° 0.3 mm 1 mps 653 mmHg 97%
    01:00 +6°C° 0.3 mm 1 mps 653 mmHg 97%
    02:00 +6°C° 0.3 mm 1 mps 653 mmHg 97%
    03:00 +6°C° 0.3 mm 1 mps 653 mmHg 97%
    04:00 +6°C° 0.3 mm 1 mps 652 mmHg 96%
    05:00 +6°C° 0.3 mm 1 mps 652 mmHg 96%
    06:00 +6°C° 0.3 mm 1 mps 652 mmHg 96%
    07:00 +6°C° 0.3 mm 1 mps 651 mmHg 95%
    08:00 +6°C° 0.3 mm 1 mps 651 mmHg 95%
    09:00 +7°C° 0.4 mm 1 mps 652 mmHg 94%
    10:00 +8°C° 0.4 mm 1 mps 652 mmHg 92%
    11:00 +8°C° 0.4 mm 1 mps 652 mmHg 91%
    12:00 +8°C° 1.2 mm 1 mps 652 mmHg 91%
    13:00 +8°C° 1.2 mm 1 mps 652 mmHg 91%
    14:00 +8°C° 1.2 mm 1 mps 651 mmHg 92%
    15:00 +7°C° 1.5 mm 1 mps 652 mmHg 93%
    16:00 +6°C° 1.5 mm 1 mps 652 mmHg 93%
    17:00 +5°C° 1.5 mm 2 mps 652 mmHg 94%
    18:00 +4°C° 1.4 mm 2 mps 652 mmHg 93%
    19:00 +4°C° 1.4 mm 2 mps 652 mmHg 92%
    20:00 +2°C° 1.4 mm 3 mps 653 mmHg 91%
    21:00 +2°C° 0.7 mm 3 mps 653 mmHg 91%
    22:00 +2°C° 0.7 mm 3 mps 653 mmHg 90%
    23:00 +3°C° 0.7 mm 2 mps 654 mmHg 89%

    Day after tomorrow, 22 November, Thursday

    Time Temperature Precipitation Wind Pressure Humidity
    00:00 +3°C° 0.3 mm 2 mps 654 mmHg 88%
    01:00 +2°C° 0.3 mm 2 mps 654 mmHg 88%
    02:00 +2°C° 0.3 mm 2 mps 654 mmHg 88%
    03:00 +2°C° 0.2 mm 2 mps 655 mmHg 88%
    04:00 +2°C° 0.2 mm 2 mps 655 mmHg 87%
    05:00 +2°C° 0.2 mm 2 mps 655 mmHg 87%
    06:00 +2°C° 0.2 mm 2 mps 655 mmHg 87%
    07:00 +2°C° 0.2 mm 2 mps 656 mmHg 87%
    08:00 +2°C° 0.2 mm 2 mps 656 mmHg 86%
    09:00 +3°C° 0.2 mm 1 mps 657 mmHg 85%
    10:00 +4°C° 0.2 mm 1 mps 657 mmHg 83%
    11:00 +4°C° 0.2 mm 1 mps 657 mmHg 81%
    12:00 +4°C° 0.2 mm 1 mps 657 mmHg 81%
    13:00 +4°C° 0.2 mm 1 mps 657 mmHg 81%
    14:00 +4°C° 0.2 mm 1 mps 657 mmHg 81%
    15:00 +4°C° 0.1 mm 1 mps 657 mmHg 84%
    16:00 +3°C° 0.1 mm 1 mps 657 mmHg 86%
    17:00 +3°C° 0.1 mm 1 mps 657 mmHg 89%
    18:00 +3°C° 0 mm 1 mps 658 mmHg 90%
    19:00 +2°C° 0 mm 1 mps 658 mmHg 91%
    20:00 +2°C° 0 mm 1 mps 658 mmHg 92%
    21:00 +2°C° 0 mm 1 mps 658 mmHg 92%
    22:00 +1°C° 0 mm 1 mps 658 mmHg 93%
    23:00 +1°C° 0 mm 1 mps 658 mmHg 93%

    23 November, Friday

    Time Temperature Precipitation Wind Pressure Humidity
    00:00 +1°C° 0 mm 1 mps 658 mmHg 93%
    01:00 +1°C° 0 mm 1 mps 658 mmHg 93%
    02:00 0°C° 0 mm 1 mps 658 mmHg 93%
    03:00 0°C° 0 mm 1 mps 658 mmHg 92%
    04:00 0°C° 0 mm 1 mps 658 mmHg 92%
    05:00 0°C° 0 mm 1 mps 658 mmHg 91%
    06:00 0°C° 0 mm 1 mps 659 mmHg 91%
    07:00 0°C° 0 mm 1 mps 659 mmHg 90%
    08:00 0°C° 0 mm 1 mps 659 mmHg 90%
    09:00 +1°C° 0 mm 1 mps 660 mmHg 84%
    10:00 +3°C° 0 mm 1 mps 661 mmHg 79%
    11:00 +4°C° 0 mm 1 mps 661 mmHg 74%
    12:00 +4°C° 0 mm 1 mps 661 mmHg 73%
    13:00 +5°C° 0 mm 1 mps 661 mmHg 72%
    14:00 +5°C° 0 mm 1 mps 661 mmHg 72%
    15:00 +4°C° 0 mm 1 mps 661 mmHg 75%
    16:00 +3°C° 0 mm 1 mps 660 mmHg 79%
    17:00 +2°C° 0 mm 1 mps 660 mmHg 83%
    18:00 +2°C° 0 mm 1 mps 660 mmHg 83%
    19:00 +1°C° 0 mm 1 mps 660 mmHg 84%
    20:00 +1°C° 0 mm 1 mps 661 mmHg 84%
    21:00 0°C° 0 mm 1 mps 661 mmHg 83%
    22:00 0°C° 0 mm 1 mps 660 mmHg 83%
    23:00 -1°C° 0 mm 1 mps 660 mmHg 82%

    24 November, Saturday

    Time Temperature Precipitation Wind Pressure Humidity
    00:00 -1°C° 0 mm 1 mps 660 mmHg 81%
    01:00 -1°C° 0 mm 1 mps 660 mmHg 80%
    02:00 -1°C° 0 mm 1 mps 660 mmHg 80%
    03:00 -1°C° 0 mm 1 mps 660 mmHg 79%
    04:00 -1°C° 0 mm 1 mps 660 mmHg 79%
    05:00 -1°C° 0 mm 1 mps 659 mmHg 79%
    06:00 -1°C° 0 mm 1 mps 659 mmHg 78%
    07:00 -1°C° 0 mm 1 mps 660 mmHg 77%
    08:00 -1°C° 0 mm 1 mps 660 mmHg 76%
    09:00 +1°C° 0 mm 1 mps 660 mmHg 70%
    10:00 +3°C° 0 mm 1 mps 660 mmHg 64%
    11:00 +5°C° 0 mm 1 mps 661 mmHg 57%
    12:00 +5°C° 0 mm 1 mps 660 mmHg 57%
    13:00 +5°C° 0 mm 1 mps 660 mmHg 57%
    14:00 +6°C° 0 mm 1 mps 660 mmHg 56%
    15:00 +5°C° 0 mm 1 mps 659 mmHg 62%
    16:00 +3°C° 0 mm 1 mps 659 mmHg 69%
    17:00 +2°C° 0 mm 1 mps 658 mmHg 75%
    18:00 +1°C° 0 mm 1 mps 658 mmHg 77%
    19:00 +1°C° 0 mm 1 mps 658 mmHg 78%
    20:00 +1°C° 0 mm 1 mps 658 mmHg 80%
    21:00 0°C° 0 mm 1 mps 658 mmHg 81%
    22:00 0°C° 0 mm 1 mps 658 mmHg 81%
    23:00 0°C° 0 mm 1 mps 658 mmHg 82%

    25 November, Sunday

    Time Temperature Precipitation Wind Pressure Humidity
    00:00 0°C° 0 mm 1 mps 657 mmHg 82%
    01:00 0°C° 0 mm 1 mps 657 mmHg 83%
    02:00 0°C° 0 mm 1 mps 657 mmHg 83%
    03:00 0°C° 0 mm 1 mps 657 mmHg 83%
    04:00 0°C° 0 mm 1 mps 656 mmHg 82%
    05:00 0°C° 0 mm 1 mps 656 mmHg 82%
    06:00 0°C° 0 mm 1 mps 656 mmHg 80%
    07:00 +1°C° 0 mm 1 mps 656 mmHg 78%
    08:00 +1°C° 0 mm 1 mps 656 mmHg 76%
    09:00 +3°C° 0 mm 1 mps 656 mmHg 70%
    10:00 +5°C° 0 mm 1 mps 657 mmHg 64%
    11:00 +7°C° 0 mm 1 mps 657 mmHg 58%
    12:00 +7°C° 0 mm 1 mps 657 mmHg 58%
    13:00 +8°C° 0 mm 1 mps 657 mmHg 57%
    14:00 +8°C° 0 mm 2 mps 656 mmHg 57%
    15:00 +7°C° 0 mm 1 mps 656 mmHg 65%
    16:00 +6°C° 0 mm 1 mps 655 mmHg 72%
    17:00 +4°C° 0 mm 1 mps 654 mmHg 80%
    18:00 +4°C° 0 mm 1 mps 654 mmHg 82%
    19:00 +3°C° 0 mm 1 mps 654 mmHg 84%
    20:00 +3°C° 0 mm 1 mps 654 mmHg 86%
    21:00 +3°C° 0 mm 1 mps 654 mmHg 86%
    22:00 +3°C° 0 mm 1 mps 654 mmHg 86%
    23:00 +3°C° 0 mm 1 mps 654 mmHg 87%
    Show more